{"data":{"norad_id":63657,"epoch":"2026-05-24T21:35:16.283328Z","epoch_age_seconds":79900,"freshness":"FRESH","line1":"1 63657U 25083Z   26144.89949402  .00016900  00000+0  62194-3 0  9997","line2":"2 63657  43.0001 294.6868 0001315 275.4493  84.6209 15.27595143 61754","mean_motion":15.27595143,"eccentricity":0.0001315,"inclination_deg":43.0001,"raan_deg":294.6868,"arg_perigee_deg":275.4493,"mean_anomaly_deg":84.6209,"bstar":0.00062194,"rev_number":6175,"period_min":94.265814250497,"perigee_km":482.10151281557,"apogee_km":483.90599283356,"semimajor_km":6861.1407528246,"source":"CELESTRAK","updated_at":"2026-05-25T13:38:20.087441Z"}}